Concord, NC

6:13 AM EDT on August 20, 2017 (GMT -0400)
Concord Regional

Weather History for KJQF - April, 2014

Change the Weather History Date:

Thursday, April 3, 2014

  Actual Average (KCLT) Record (KCLT)
Temperature  
Mean Temperature 70 °F -  
Max Temperature 84 °F 68 °F 90 °F (1946)
Min Temperature 57 °F 45 °F 28 °F (1972)
Cooling Degree Days 6    
Growing Degree Days 20 (Base 50)    
Moisture  
Dew Point 38 °F    
Average Humidity 35    
Maximum Humidity 55    
Minimum Humidity 16    
Precipitation  
Precipitation 0.00 in - - ()
Sea Level Pressure  
Sea Level Pressure 30.03 in    
Wind  
Wind Speed 5 mph (SSW)    
Max Wind Speed 16 mph    
Max Gust Speed 20 mph    
Visibility 10 miles    
Events      
Averages and records for this station are not official NWS values.
T = Trace of Precipitation, MM = Missing Value Source: NWS Daily Summary

Daily Weather History Graph

Daily Weather History Graph

Search for Another Location

Airport or City:

Trip Planner

Search our weather history database for the weather conditions in past years. The results will help you decide how hot, cold, wet, or windy it might be!

Date:

Astronomy

Apr. 03, 2014 Rise Set
Actual Time 7:06 AM EDT 7:45 PM EDT
Civil Twilight 6:41 AM EDT 8:11 PM EDT
Nautical Twilight 6:10 AM EDT 8:42 PM EDT
Astronomical Twilight 5:39 AM EDT 9:13 PM EDT
Moon 9:41 AM EDT (4/3) 11:56 PM EDT (4/3)
Length of Visible Light 13h 30m
Length of Day
12h 39m
Waxing Crescent, 17% of the Moon is Illuminated
Apr 3
Waxing Crescent
Apr 7
First Quarter
Apr 15
Full
Apr 22
Last Quarter
Apr 29
New

Hourly Weather History & Observations

Time (EDT) Temp. Dew Point Humidity Pressure Visibility Wind Dir Wind Speed Gust Speed Precip Events Conditions
12:15 AM 66.2 °F 32.0 °F 28% 30.07 in 10.0 mi SSW 3.5 mph - N/A   Clear
12:35 AM 64.4 °F 32.0 °F 30% 30.07 in 10.0 mi SW 4.6 mph - N/A   Clear
12:55 AM 68.0 °F 30.2 °F 24% 30.07 in 10.0 mi SW 4.6 mph - N/A   Clear
1:15 AM 68.0 °F 32.0 °F 26% 30.07 in 10.0 mi SSW 5.8 mph - N/A   Clear
1:35 AM 66.2 °F 32.0 °F 28% 30.07 in 10.0 mi SSW 6.9 mph - N/A   Clear
1:55 AM 66.2 °F 32.0 °F 28% 30.06 in 10.0 mi SSW 5.8 mph - N/A   Clear
2:15 AM 64.4 °F 32.0 °F 30% 30.06 in 10.0 mi SSW 6.9 mph - N/A   Clear
2:35 AM 64.4 °F 32.0 °F 30% 30.05 in 10.0 mi SSW 4.6 mph - N/A   Clear
2:55 AM 64.4 °F 33.8 °F 32% 30.05 in 10.0 mi South 3.5 mph - N/A   Clear
3:15 AM 64.4 °F 33.8 °F 32% 30.04 in 10.0 mi SSW 5.8 mph - N/A   Clear
3:35 AM 62.6 °F 33.8 °F 34% 30.03 in 10.0 mi SW 5.8 mph - N/A   Clear
3:55 AM 64.4 °F 33.8 °F 32% 30.03 in 10.0 mi SW 4.6 mph - N/A   Clear
4:15 AM 62.6 °F 33.8 °F 34% 30.04 in 10.0 mi SW 3.5 mph - N/A   Clear
4:35 AM 62.6 °F 35.6 °F 37% 30.04 in 10.0 mi Calm Calm - N/A   Clear
4:55 AM 62.6 °F 33.8 °F 34% 30.04 in 10.0 mi Calm Calm - N/A   Clear
5:15 AM 60.8 °F 35.6 °F 39% 30.04 in 10.0 mi Calm Calm - N/A   Clear
5:35 AM 60.8 °F 35.6 °F 39% 30.04 in 10.0 mi Calm Calm - N/A   Clear
5:55 AM 59.0 °F 37.4 °F 45% 30.05 in 10.0 mi Calm Calm - N/A   Clear
6:15 AM 57.2 °F 41.0 °F 55% 30.05 in 10.0 mi Calm Calm - N/A   Clear
6:35 AM 59.0 °F 41.0 °F 51% 30.06 in 10.0 mi Calm Calm - N/A   Clear
6:51 AM 59.0 °F 42.8 °F 55% 30.06 in 10.0 mi Calm Calm - N/A   Clear
7:52 AM 60.8 °F 44.6 °F 55% 30.11 in 10.0 mi Calm Calm - N/A   Clear
8:55 AM 60.8 °F 39.2 °F 45% 30.10 in 10.0 mi SE 3.5 mph - N/A   Scattered Clouds
9:59 AM 62.6 °F 41.0 °F 45% 30.13 in 10.0 mi NNE 8.1 mph - N/A   Scattered Clouds
10:55 AM 62.6 °F 41.0 °F 45% 30.12 in 10.0 mi East 6.9 mph - N/A   Clear
11:55 AM 66.2 °F 42.8 °F 43% 30.11 in 10.0 mi SE 3.5 mph - N/A   Clear
12:53 PM 69.8 °F 39.2 °F 33% 30.10 in 10.0 mi Calm Calm - N/A   Clear
1:53 PM 73.4 °F 42.8 °F 33% 30.05 in 10.0 mi Calm Calm - N/A   Clear
2:53 PM 78.8 °F 44.6 °F 30% 30.01 in 10.0 mi SSE 6.9 mph - N/A   Clear
3:56 PM 80.6 °F 46.4 °F 30% 29.96 in 10.0 mi East 4.6 mph - N/A   Clear
4:55 PM 82.4 °F 48.2 °F 30% 29.94 in 10.0 mi SSE 5.8 mph - N/A   Clear
5:55 PM 84.2 °F 33.8 °F 16% 29.93 in 10.0 mi SW 12.7 mph 19.6 mph N/A   Clear
6:52 PM 82.4 °F 35.6 °F 19% 29.93 in 10.0 mi SW 16.1 mph 19.6 mph N/A   Clear
7:55 PM 78.8 °F 39.2 °F 24% 29.94 in 10.0 mi SSW 13.8 mph 18.4 mph N/A   Clear
8:55 PM 77.0 °F 41.0 °F 28% 29.94 in 10.0 mi SSW 12.7 mph 18.4 mph N/A   Clear
9:52 PM 73.4 °F 42.8 °F 33% 29.95 in 10.0 mi SSW 9.2 mph - N/A   Clear
10:15 PM 73.4 °F 41.0 °F 31% 29.96 in 10.0 mi SSW 8.1 mph - N/A   Clear
10:35 PM 71.6 °F 41.0 °F 33% 29.95 in 10.0 mi South 8.1 mph - N/A   Clear
11:55 PM 71.6 °F 39.2 °F 31% 29.94 in 10.0 mi SSW 10.4 mph - N/A   Clear